Flag for Congo Dem.Rep. Weather past 2 weeks in Bukavu, Congo Dem.Rep.

Now
64 °F

Passing clouds.


Feels Like: 64 °F
Forecast: 54 / 78 °F
Wind: No wind

Location: Kigali Airport

Current Time: Aug 30, 2015 at 6:06:22 AM

Latest Report: Aug 30, 2015 at 5:00 AM


Visibility: N/A

Pressure: 30.15 "Hg (24.67 "Hg at 1710m altitude)

Humidity: 78%

Dew point: 57 °F

Location of BukavuLocation

Historic Weather in Bukavu — Graph

°F

Bukavu temperature yesterday

Maximum temperature yesterday: 88 °F (at 3:30 PM)
Minimum temperature yesterday: 66 °F (at 3:00 AM)
Average temperature yesterday: 76 °F

Past Weeks' High & Low Weather Summary

 TemperatureHumidityPressure
High90 °F (Aug 20, 3:30 PM)94% (Aug 16, 3:30 AM)30.27 "Hg (Aug 16, 3:30 AM)
Low57 °F (Aug 24, 5:30 AM)20% (Aug 16, 11:00 AM)29.98 "Hg (Aug 20, 5:00 PM)
Average74 °F49%30.12 "Hg
* Reported Aug 15 4:00 AM — Aug 30 4:30 AM, Bukavu, Weather by CustomWeather, © 2015

Note: Actual official high and low records may vary slightly from our data, if they occured in-between our weather recording intervals... More about our weather records

Advertising

Bukavu weather history for previous 24 hours

 ConditionsComfort  
Time TempWeatherWind HumidityBarometerVisibility
4:30 AM
Sun, Aug 30
66 °FPassing clouds.No wind73%30.12 "HgN/A
4:00 AM66 °FPassing clouds.No wind73%30.12 "HgN/A
3:30 AM68 °FPassing clouds.3 mph73%30.12 "HgN/A
3:00 AM68 °FPassing clouds.3 mph73%30.12 "HgN/A
2:30 AM68 °FPassing clouds.No wind69%30.12 "HgN/A
2:00 AM68 °FPassing clouds.6 mph69%30.12 "HgN/A
1:30 AM70 °FPassing clouds.5 mph64%30.12 "HgN/A
1:00 AM70 °FPassing clouds.No wind64%30.12 "HgN/A
12:30 AM70 °FPassing clouds.3 mph69%30.15 "HgN/A
12:00 AM72 °FPassing clouds.5 mph65%30.15 "HgN/A
11:30 PM
Sat, Aug 29
72 °FPassing clouds.5 mph65%30.15 "HgN/A
11:00 PM73 °FPassing clouds.3 mph61%30.18 "HgN/A
10:00 PM73 °FPassing clouds.No wind61%30.15 "HgN/A
9:30 PM75 °FPassing clouds.3 mph57%30.15 "HgN/A
9:00 PM75 °FPassing clouds.3 mph57%30.15 "HgN/A
8:30 PM75 °FPassing clouds.5 mph54%30.12 "HgN/A
8:00 PM77 °FPassing clouds.6 mph51%30.09 "HgN/A
7:30 PM77 °FPassing clouds.7 mph51%30.09 "HgN/A
7:00 PM79 °FPassing clouds.9 mph51%30.07 "HgN/A
6:30 PM81 °FPassing clouds.9 mph48%30.07 "HgN/A
5:30 PM86 °FScattered clouds.8 mph31%30.07 "HgN/A
4:30 PM88 °FScattered clouds.7 mph29%30.04 "HgN/A
4:00 PM88 °FScattered clouds.6 mph29%30.04 "HgN/A
3:30 PM88 °FScattered clouds.5 mph31%30.07 "HgN/A
3:00 PM86 °FScattered clouds.7 mph31%30.07 "HgN/A
2:30 PM84 °FPartly sunny.9 mph35%30.07 "HgN/A
2:00 PM86 °FPartly sunny.9 mph31%30.09 "HgN/A
1:30 PM86 °FPartly sunny.8 mph33%30.09 "HgN/A
1:00 PM86 °FPartly sunny.8 mph38%30.12 "HgN/A
12:00 PM84 °FScattered clouds.9 mph33%30.15 "HgN/A
11:30 AM82 °FPassing clouds.5 mph40%30.18 "HgN/A
11:00 AM82 °FPassing clouds.6 mph40%30.18 "HgN/A
10:00 AM77 °FPassing clouds.7 mph47%30.21 "HgN/A
9:30 AM77 °FPassing clouds.8 mph47%30.21 "HgN/A
9:00 AM77 °FPassing clouds.No wind54%30.21 "HgN/A
8:00 AM68 °FPassing clouds.3 mph73%30.18 "HgN/A
7:30 AM66 °FPassing clouds.No wind78%30.15 "HgN/A
7:00 AM66 °FPassing clouds.No wind78%30.15 "HgN/A
6:00 AM66 °FPassing clouds.9 mph73%30.12 "HgN/A
Weather by CustomWeather, © 2015

See weather overviewHow to use our weather pages